Flag for Germany Weather past 2 weeks in Mechernich, North Rhine-Westphalia, Germany

Now
57 °F

Partly sunny.


Feels Like: 55 °F
Forecast: 41 / 55 °F
Wind: 9 mph from Southwest

Location: Noervenich

Current Time: Oct 20, 2014 at 11:01:38 AM

Latest Report: Oct 20, 2014 at 10:20 AM


Visibility: N/A

Pressure: 30.07 "Hg

Humidity: 82%

Dew point: 52 °F

Location of MechernichLocation

Historic Weather in Mechernich — Graph

°F

Mechernich temperature yesterday

Maximum temperature yesterday: 75 °F (at 2:20 PM)
Minimum temperature yesterday: 59 °F (at 1:20 AM)
Average temperature yesterday: 65 °F

Past Weeks' High & Low Weather Summary

 TemperatureHumidityPressure
High75 °F (Oct 19, 2:20 PM)100% (Oct 5, 3:20 PM)30.09 "Hg (Oct 5, 3:20 PM)
Low46 °F (Oct 11, 7:20 AM)46% (Oct 14, 2:20 PM)29.53 "Hg (Oct 7, 7:20 AM)
Average58 °F83%29.84 "Hg
* Reported Oct 5 9:20 AM — Oct 20 9:20 AM, Mechernich, Weather by CustomWeather, © 2014

Note: Actual official high and low records may vary slightly from our data, if they occured in-between our weather recording intervals... More about our weather records

Advertising

Mechernich weather history for previous 24 hours

 ConditionsComfort  
Time TempWeatherWind HumidityBarometerVisibility
9:20 AM
Oct 20
57 °FPartly sunny.7 mph82%30.07 "HgN/A
8:20 AM57 °FPassing clouds.7 mph82%30.07 "HgN/A
7:20 AM55 °FPassing clouds.10 mph88%30.04 "HgN/A
5:20 AM55 °FPassing clouds.7 mph88%30.04 "HgN/A
4:20 AM57 °FPassing clouds.6 mph82%30.04 "HgN/A
3:20 AM59 °FPassing clouds.9 mph77%30.04 "HgN/A
2:20 AM59 °FPassing clouds.12 mph82%30.04 "HgN/A
1:20 AM59 °FPassing clouds.13 mph82%30.07 "HgN/A
12:20 AM61 °FPartly cloudy.12 mph77%30.07 "HgN/A
11:20 PM
Oct 19
61 °FPassing clouds.13 mph77%30.04 "HgN/A
10:20 PM63 °FPartly cloudy.13 mph83%30.01 "HgN/A
9:20 PM64 °FSprinkles. Partly cloudy.10 mph88%30.01 "HgN/A
8:20 PM66 °FPartly cloudy.6 mph78%29.98 "HgN/A
7:20 PM66 °FScattered clouds.3 mph78%29.98 "HgN/A
6:20 PM70 °FPassing clouds.6 mph69%29.98 "HgN/A
5:20 PM72 °FScattered clouds.9 mph69%29.98 "HgN/A
4:20 PM73 °FPassing clouds.9 mph65%29.98 "HgN/A
3:20 PM75 °FPassing clouds.12 mph61%29.98 "HgN/A
2:20 PM75 °FPassing clouds.9 mph61%29.98 "HgN/A
1:20 PM73 °FPassing clouds.6 mph61%30.01 "HgN/A
12:20 PM72 °FPassing clouds.7 mph65%30.01 "HgN/A
11:20 AM70 °FPassing clouds.7 mph69%30.04 "HgN/A
Weather by CustomWeather, © 2014

See weather overviewHow to use our weather pages